Content
SEND FEEDBACK

Daily
Averages
Monthly
Summary
United Kingdom

LONDON, ENGLAND


Home > Europe > United Kingdom > England
Elevation: 203 feet     Latitude: 51 09N     Longitude: 000 11W

WEATHER
 
SELECT A DAY
Number of Records: 292,234;   Date Range: 7/1/96 - 7/8/14
 
SHARE

PRINT THIS DATA

[ ← Previous Day ]
WEATHER ALMANAC - FEBRUARY 10, 2013
[ Next Day → ]
[ °C ]   °F
Weather ElementAverageHighLow
Temperature38.6 °F41 °F (3:20 am)35.6 °F (4:20 pm)
Dewpoint36.2 °F39.2 °F (2:20 am)32 °F (4:50 pm)
Humidity91 %100 % (2:20 am)87 % (5:20 am)
Barometer29.48 in29.83 in (12:50 am)29.27 in (7:20 pm)
Wind Speed9.3 mph13.8 mph (1:20 pm)
Wind Gust21.9 mph (12:50 pm)
Weather ElementAverage
Visibility4.8 mi
Wind DirectionESE (122.6 °)

Weather ElementTotal
Precipitation---
Heating Degree Days26.7 (Base 65)
Averaged from 46 records on February 10, 2013
WEATHER CONDITIONS BREAKOUT
WIND DIRECTION BREAKOUT
WEATHER BY HOUR - FEBRUARY 10, 2013
[ °C ]   °F
Local TimeTemperatureDewpointHumidityBarometerVisibilityWind DirectionWind SpeedGust SpeedPrecipitationEventsConditions
12:50 AM39.2 °F37.4 °F93 %29.83 inSSE (160°)4.6 mphLight Drizzle
1:20 AM39.2 °F37.4 °F93 %29.83 in3.7 miVariable3.5 mphLight Drizzle
1:50 AM39.2 °F37.4 °F93 %29.80 in3.1 miSouth (170°)5.8 mphLight Drizzle
2:20 AM39.2 °F39.2 °F100 %29.80 in3.1 miVariable3.5 mphLight Drizzle
2:50 AM39.2 °F39.2 °F100 %29.77 in3.1 miVariable2.3 mphRainLight Rain
3:20 AM41.0 °F39.2 °F93 %29.77 in3.7 miSSE (160°)4.6 mphLight Drizzle
3:50 AM41.0 °F39.2 °F93 %29.74 in5.0 miSSE (160°)4.6 mphLight Drizzle
4:20 AM39.2 °F37.4 °F93 %29.71 in5.6 miSSE (160°)5.8 mphLight Drizzle
4:50 AM39.2 °F37.4 °F93 %29.71 in5.6 miSSE (150°)5.8 mphLight Drizzle
5:20 AM41.0 °F37.4 °F87 %29.68 in5.6 miSSE (160°)5.8 mphLight Drizzle
5:50 AM41.0 °F37.4 °F87 %29.68 in5.6 miSSE (160°)8.1 mphLight Drizzle
6:20 AM41.0 °F39.2 °F93 %29.65 in5.6 miSSE (150°)6.9 mphLight Drizzle
7:20 AM41.0 °F39.2 °F93 %29.62 in5.0 miSSE (150°)8.1 mphRainLight Rain
7:50 AM41.0 °F39.2 °F93 %29.59 inSE (140°)8.1 mphRainLight Rain
8:20 AM41.0 °F39.2 °F93 %29.59 in3.7 miSE (140°)9.2 mphLight Drizzle
8:50 AM41.0 °F39.2 °F93 %29.56 in5.0 miSE (140°)10.4 mphRainLight Rain
9:20 AM41.0 °F37.4 °F87 %29.56 in6.2 miSSE (150°)11.5 mphRainLight Rain
9:50 AM41.0 °F37.4 °F87 %29.53 in6.2 miSSE (150°)10.4 mphRainLight Rain
10:20 AM41.0 °F37.4 °F87 %29.53 in3.7 miSSE (150°)10.4 mphRainLight Rain
10:50 AM41.0 °F37.4 °F87 %29.50 in5.6 miSE (140°)11.5 mphRainLight Rain
11:20 AM41.0 °F37.4 °F87 %29.50 in6.2 miSE (140°)11.5 mphRainLight Rain
11:50 AM39.2 °F37.4 °F93 %29.47 in6.2 miSE (140°)11.5 mphRainLight Rain
12:20 PM39.2 °F37.4 °F93 %29.44 in6.2 miSE (140°)11.5 mphRainLight Rain
12:50 PM39.2 °F37.4 °F93 %29.42 in6.2 miSE (130°)10.4 mph21.9 mphRainLight Rain
1:20 PM39.2 °F35.6 °F87 %29.42 in6.2 miSE (140°)13.8 mphRainLight Rain
1:50 PM39.2 °F35.6 °F87 %29.39 in6.2 miSE (130°)11.5 mphRainLight Rain
2:20 PM39.2 °F35.6 °F87 %29.39 in6.2 miSE (130°)12.7 mphRainLight Rain
2:50 PM39.2 °F35.6 °F87 %29.36 in6.2 miESE (120°)11.5 mphRainRain
3:20 PM37.4 °F35.6 °F93 %29.33 in3.1 miESE (120°)12.7 mphRainRain
3:50 PM37.4 °F33.8 °F87 %29.33 in3.1 miSE (130°)13.8 mphRain-SnowRain
4:20 PM35.6 °F33.8 °F93 %29.33 in2.8 miESE (120°)11.5 mphRain-SnowLight Rain
4:50 PM35.6 °F32.0 °F87 %29.30 in3.1 miESE (110°)11.5 mphRainLight Rain
5:20 PM35.6 °F33.8 °F93 %29.30 in5.0 miESE (110°)10.4 mphRainLight Rain
5:50 PM35.6 °F33.8 °F93 %29.30 in4.3 miESE (110°)10.4 mphRainLight Rain
6:20 PM35.6 °F33.8 °F93 %29.30 in5.0 miESE (120°)9.2 mphRainLight Rain
6:50 PM37.4 °F33.8 °F87 %29.30 in5.0 miESE (120°)9.2 mphRainLight Rain
7:20 PM37.4 °F33.8 °F87 %29.27 in5.0 miESE (120°)11.5 mphRainLight Rain
7:50 PM35.6 °F33.8 °F93 %29.27 in3.1 miESE (110°)10.4 mphRainLight Rain
8:20 PM37.4 °F35.6 °F93 %29.27 in4.3 miESE (120°)10.4 mphLight Drizzle
8:50 PM37.4 °F33.8 °F87 %29.27 in5.0 miESE (120°)11.5 mphLight Drizzle
9:20 PM37.4 °F33.8 °F87 %29.27 in5.0 miESE (110°)11.5 mphRainLight Rain
9:50 PM35.6 °F33.8 °F93 %29.27 in5.0 miEast (100°)11.5 mphRainLight Rain
10:20 PM35.6 °F33.8 °F93 %29.27 in4.3 miEast (90°)11.5 mphRain-SnowLight Rain
10:50 PM35.6 °F32.0 °F87 %29.27 in3.7 miEast (90°)8.1 mphRainLight Rain
11:20 PM35.6 °F33.8 °F93 %29.27 in5.0 miEast (90°)9.2 mphRainLight Rain
11:50 PM35.6 °F33.8 °F93 %29.27 in3.7 miEast (90°)9.2 mphRainLight Rain
Hourly data recorded from EGKK, located miles away from London, England







STORIES FROM OUR PARTNERS